Total_Precipitation_Accumulation
2.11 2.26 2.35 2.54 2.84 3.12 3.33 3.59 3.88 4.26 4.55 4.98 5.36 5.56 5.75 5.96 6.02 5.98 5.95 5.91 5.85 6.00 6.11 5.82 5.92 5.84 5.72 5.51 5.51 5.46 5.25 4.99 4.98 4.87 4.45 3.75 3.30 3.25 3.16 3.15 3.39 3.37 3.30
2.04 2.36 2.69 3.08 3.33 3.55 3.67 3.94 4.28 4.59 4.77 5.17 5.71 6.23 6.48 6.57 6.58 6.60 6.74 6.74 6.71 6.89 6.96 6.97 6.73 6.56 6.34 5.86 5.51 5.41 5.19 4.82 4.94 5.00 5.01 4.37 3.88 3.29 2.76 2.82 2.90 3.01 3.22
2.16 2.47 2.95 3.29 3.41 3.55 3.68 3.89 4.44 4.93 5.38 5.82 6.40 6.91 7.27 7.30 7.14 6.82 6.93 7.07 6.86 6.91 7.21 7.34 7.10 6.77 6.21 5.67 5.57 5.55 5.37 5.12 4.99 4.90 5.20 4.75 4.20 3.63 2.98 2.64 2.59 2.73 2.83
2.12 2.48 2.79 3.10 3.29 3.39 3.70 4.01 4.45 5.13 5.66 5.94 6.57 7.27 7.51 7.77 7.81 7.61 7.33 7.14 6.87 6.69 6.66 6.64 6.32 5.96 5.59 5.33 5.20 5.33 5.22 5.19 4.95 4.87 4.59 4.38 4.07 3.76 3.30 2.79 2.53 2.60 2.61
1.93 2.30 2.58 2.91 3.30 3.39 3.52 3.76 4.33 4.95 5.69 6.33 6.84 7.47 7.92 8.20 8.13 7.71 7.23 6.70 6.37 5.90 5.46 5.21 5.09 5.07 4.90 4.70 4.62 4.73 4.67 4.40 4.28 4.33 4.37 4.34 4.04 3.60 3.31 3.04 2.81 2.72 2.44
1.82 2.02 2.33 2.63 2.95 3.01 3.25 3.54 4.01 4.74 5.45 6.04 6.64 7.17 7.58 7.71 7.41 6.87 6.33 5.95 5.59 5.05 4.51 4.31 4.25 4.20 4.04 3.87 3.78 3.81 3.84 3.86 3.91 4.05 4.11 4.10 4.02 3.69 3.61 3.37 3.04 2.89 2.66
1.84 2.09 2.33 2.64 2.78 2.84 3.09 3.46 4.01 4.65 5.05 5.51 6.03 6.36 6.57 6.70 6.67 6.38 5.92 5.53 5.02 4.54 4.09 3.70 3.58 3.35 3.20 3.17 3.29 3.31 3.25 3.39 3.50 3.62 3.75 3.75 3.63 3.47 3.51 3.57 3.28 2.97 2.74
1.99 2.35 2.46 2.61 2.80 2.85 3.09 3.47 3.93 4.34 4.56 4.74 5.14 5.45 5.58 5.61 5.47 5.32 4.93 4.61 4.24 3.92 3.69 3.29 2.95 2.73 2.60 2.55 2.80 2.91 2.92 3.01 3.14 3.19 3.42 3.34 3.18 3.25 3.32 3.48 3.63 3.52 3.10
2.06 2.35 2.51 2.62 2.73 2.78 2.98 3.19 3.49 3.71 3.95 4.09 4.27 4.47 4.51 4.39 4.23 4.06 3.80 3.59 3.39 3.06 2.93 2.72 2.56 2.45 2.41 2.44 2.55 2.56 2.68 2.86 2.92 2.92 3.01 3.08 3.02 3.09 3.10 3.22 3.40 3.55 3.33
2.05 2.25 2.37 2.51 2.59 2.58 2.67 2.77 3.01 3.19 3.42 3.55 3.54 3.42 3.47 3.39 3.22 3.01 2.87 2.68 2.50 2.41 2.39 2.32 2.35 2.31 2.25 2.31 2.41 2.31 2.37 2.52 2.51 2.51 2.62 2.69 2.69 2.83 2.85 2.96 3.14 3.29 3.26
1.95 2.07 2.24 2.28 2.27 2.26 2.32 2.47 2.64 2.84 2.98 3.02 3.06 3.00 2.90 2.70 2.57 2.39 2.26 2.19 2.12 2.10 2.08 2.10 2.15 2.18 2.18 2.22 2.20 2.03 2.07 2.14 2.30 2.41 2.47 2.50 2.58 2.69 2.65 2.69 2.75 2.87 3.07
1.91 1.85 1.92 1.97 2.00 2.09 2.20 2.34 2.38 2.47 2.53 2.64 2.70 2.72 2.65 2.48 2.28 2.12 2.03 2.04 2.04 2.02 2.01 2.01 1.98 2.00 2.15 2.24 2.16 2.00 1.95 2.07 2.22 2.35 2.49 2.43 2.40 2.45 2.49 2.58 2.56 2.56 2.74
1.94 1.88 1.86 1.86 1.87 2.09 2.24 2.21 2.27 2.34 2.39 2.55 2.58 2.58 2.62 2.46 2.23 2.11 2.13 2.12 2.06 2.04 2.00 1.94 1.92 1.94 2.01 2.07 2.00 1.92 1.88 1.93 2.03 2.14 2.20 2.23 2.27 2.19 2.16 2.19 2.27 2.29 2.34
2.05 2.10 2.14 2.08 2.00 2.07 2.26 2.28 2.39 2.44 2.47 2.49 2.43 2.25 2.17 2.15 2.14 2.08 2.05 2.01 1.96 1.97 1.99 1.98 1.97 1.92 1.83 1.71 1.67 1.67 1.70 1.75 1.76 1.82 1.84 1.92 2.06 2.07 2.04 1.97 2.07 2.18 2.35
2.22 2.21 2.13 2.11 2.03 2.02 2.21 2.37 2.41 2.38 2.62 2.67 2.55 2.37 2.17 2.15 2.16 2.08 2.01 1.97 1.91 1.80 1.85 1.91 1.83 1.69 1.52 1.34 1.39 1.46 1.48 1.60 1.61 1.62 1.55 1.53 1.75 1.91 1.85 1.66 1.83 2.09 2.29
2.38 2.35 2.34 2.31 2.24 2.14 2.22 2.43 2.47 2.42 2.56 2.56 2.62 2.65 2.57 2.56 2.43 2.23 2.12 2.09 2.06 2.00 1.90 1.85 1.77 1.61 1.31 1.33 1.30 1.41 1.54 1.63 1.60 1.61 1.59 1.47 1.50 1.58 1.55 1.47 1.61 1.88 1.98
2.65 2.61 2.65 2.60 2.60 2.56 2.50 2.52 2.48 2.44 2.47 2.57 2.65 2.66 2.64 2.57 2.49 2.27 2.22 2.26 2.19 2.09 1.96 1.82 1.75 1.69 1.59 1.48 1.25 1.29 1.42 1.52 1.51 1.52 1.57 1.38 1.29 1.50 1.52 1.52 1.49 1.54 1.56
2.64 2.67 2.79 2.77 2.77 2.67 2.62 2.54 2.54 2.62 2.70 2.74 2.72 2.61 2.49 2.47 2.42 2.41 2.39 2.32 2.23 2.12 2.00 1.86 1.72 1.61 1.36 1.25 1.12 1.17 1.27 1.46 1.46 1.42 1.48 1.54 1.44 1.38 1.45 1.44 1.43 1.45 1.48
2.70 2.67 2.65 2.65 2.71 2.64 2.57 2.53 2.54 2.59 2.64 2.66 2.54 2.45 2.46 2.48 2.31 2.30 2.29 2.25 2.16 2.03 1.91 1.80 1.70 1.59 1.38 1.19 1.08 1.17 1.30 1.47 1.45 1.40 1.38 1.46 1.46 1.46 1.41 1.44 1.55 1.58 1.55
2.46 2.37 2.22 2.17 2.37 2.53 2.53 2.44 2.39 2.41 2.40 2.25 2.08 2.01 2.12 2.15 2.00 1.90 1.88 1.92 1.96 1.95 1.85 1.72 1.65 1.58 1.51 1.39 1.21 1.21 1.26 1.39 1.42 1.50 1.47 1.43 1.41 1.42 1.37 1.48 1.67 1.66 1.60
1.98 1.92 1.89 1.97 2.11 2.16 2.22 2.26 2.18 2.23 2.15 1.97 1.87 1.89 1.87 1.85 1.81 1.82 1.86 1.80 1.73 1.76 1.79 1.76 1.66 1.54 1.43 1.33 1.20 1.16 1.06 1.17 1.30 1.37 1.46 1.39 1.32 1.30 1.30 1.44 1.54 1.55 1.52
1.65 1.60 1.72 1.83 1.88 1.82 1.83 1.95 1.97 1.99 1.91 1.82 1.74 1.79 1.77 1.66 1.73 1.90 1.84 1.79 1.79 1.76 1.72 1.73 1.62 1.43 1.30 1.17 1.06 1.06 1.08 1.14 1.27 1.37 1.39 1.34 1.30 1.27 1.32 1.34 1.41 1.45 1.54
1.40 1.46 1.51 1.64 1.76 1.76 1.79 1.84 1.82 1.74 1.75 1.80 1.73 1.66 1.59 1.68 1.76 1.88 1.83 1.74 1.70 1.58 1.45 1.43 1.38 1.26 1.13 1.02 0.96 0.96 1.03 1.15 1.21 1.27 1.34 1.29 1.29 1.29 1.39 1.43 1.46 1.57 1.77
1.29 1.37 1.42 1.47 1.62 1.60 1.61 1.73 1.67 1.63 1.77 1.87 1.79 1.66 1.57 1.55 1.60 1.67 1.69 1.59 1.51 1.42 1.32 1.25 1.20 1.15 1.12 1.01 0.92 0.93 0.97 1.05 1.14 1.20 1.27 1.35 1.40 1.42 1.51 1.63 1.73 1.78 1.86
1.44 1.42 1.45 1.45 1.43 1.43 1.45 1.45 1.49 1.60 1.79 1.76 1.62 1.50 1.39 1.35 1.38 1.39 1.38 1.37 1.26 1.22 1.18 1.08 1.01 1.05 1.05 0.97 0.98 0.96 0.96 1.00 1.04 1.09 1.25 1.47 1.53 1.62 1.70 1.73 1.76 1.80 1.75
1.39 1.44 1.39 1.29 1.29 1.37 1.41 1.33 1.27 1.40 1.66 1.66 1.42 1.27 1.18 1.16 1.10 1.08 1.09 1.09 1.08 1.07 1.01 1.01 0.96 0.88 0.85 0.84 0.85 0.88 0.95 1.01 1.08 1.12 1.28 1.41 1.47 1.57 1.64 1.66 1.66 1.70 1.70